Location: Narrabri
(30.3170°S, 149.7830°E)
Time: 17:24:38
(UTC+11:00)

Vanguard 3 - Visible Passes

Search period start: 14 December 2017 00:00
Search period end: 24 December 2017 00:00
Orbit: 509 x 3263 km, 33.3° (Epoch: 13 December)

Date Brightness Start Highest point End Pass type
(mag) Time Alt. Az. Time Alt. Az. Time Alt. Az.
14 Dec 9.7 00:14:55 10° WNW 00:30:04 77° NNE 00:50:20 10° ESE visible
14 Dec 10.0 02:29:15 10° W 02:48:03 82° S 03:07:09 10° E visible
14 Dec 10.0 04:46:08 10° WSW 05:06:38 89° SSE 05:22:06 10° ENE visible
14 Dec 10.0 20:53:57 10° N 21:01:25 19° NE 21:11:16 10° E visible
14 Dec 9.5 23:01:14 10° NW 23:13:57 59° NE 23:32:53 10° ESE visible
15 Dec 9.9 01:13:42 10° WNW 01:30:24 87° SSW 01:50:43 10° ESE visible
15 Dec 10.1 03:29:20 10° W 03:49:10 82° S 04:06:59 10° E visible
15 Dec 9.6 21:48:38 10° NNW 21:58:56 40° NE 22:14:40 10° ESE visible
15 Dec 9.6 23:59:06 10° WNW 00:13:22 81° NNE 00:33:38 10° ESE visible
16 Dec 10.0 02:13:12 10° W 02:31:21 81° S 02:50:59 10° E visible
16 Dec 10.0 04:29:35 10° WSW 04:49:56 87° NNW 05:06:16 10° ENE visible
16 Dec 9.9 20:37:34 10° N 20:44:55 22° NE 20:55:07 10° E visible
16 Dec 9.4 22:45:26 10° NW 22:57:19 64° NNE 23:16:02 10° ESE visible
17 Dec 9.8 00:57:54 10° W 01:13:44 85° S 01:34:13 10° E visible
17 Dec 10.1 03:13:06 10° W 03:32:26 84° S 03:50:58 10° E visible
17 Dec 9.4 21:32:46 10° NNW 21:42:24 43° NE 21:57:53 10° ESE visible
17 Dec 9.5 23:43:24 10° WNW 23:56:47 85° NNE 00:16:52 10° ESE visible
18 Dec 10.0 01:57:16 10° W 02:14:40 81° S 02:34:42 10° E visible
18 Dec 10.0 04:13:08 10° WSW 04:33:09 83° NNW 04:50:18 10° ENE visible
18 Dec 9.6 20:21:26 10° N 20:28:31 24° NE 20:38:49 10° E visible
18 Dec 9.2 22:29:46 10° NW 22:40:50 69° NNE 22:59:07 10° ESE visible
19 Dec 9.8 00:42:11 10° W 00:57:09 83° S 01:17:39 10° E visible
19 Dec 10.0 02:56:56 10° WSW 03:15:41 86° SSE 03:34:50 10° ENE visible
19 Dec 10.0 05:13:23 10° WSW 05:33:05 64° NNW 05:48:39 10° NE visible
19 Dec 9.2 21:17:03 10° NNW 21:26:01 47° NE 21:41:03 10° ESE visible
19 Dec 9.5 23:27:50 10° WNW 23:40:20 89° NNE 00:00:03 10° ESE visible
20 Dec 9.9 01:41:25 10° W 01:58:00 81° S 02:18:20 10° E visible
20 Dec 10.0 03:56:45 10° WSW 04:16:17 79° NNW 04:34:10 10° ENE visible
20 Dec 9.1 22:14:14 10° WNW 22:24:30 74° NNE 22:42:11 10° ESE visible
21 Dec 9.7 00:26:34 10° W 00:40:40 81° S 01:01:00 10° E visible
21 Dec 10.0 02:40:52 10° WSW 02:58:54 89° SSE 03:18:33 10° ENE visible
21 Dec 10.1 04:56:53 10° WSW 05:16:07 59° NW 05:32:25 10° NE visible
21 Dec 9.0 21:01:28 10° NW 21:09:45 52° NE 21:24:12 10° ESE visible
21 Dec 9.4 23:12:21 10° WNW 23:24:01 87° SSW 23:43:10 10° ESE visible
22 Dec 9.9 01:25:39 10° W 01:41:23 82° S 02:01:51 10° E visible
22 Dec 10.0 03:40:29 10° WSW 03:59:20 75° NNW 04:17:53 10° NE visible
22 Dec 9.0 21:58:48 10° WNW 22:08:18 79° NNE 22:25:13 10° ESE visible
23 Dec 9.6 00:11:01 10° W 00:24:14 80° S 00:44:17 10° E visible
23 Dec 9.9 02:24:53 10° WSW 02:42:06 88° NNW 03:02:08 10° ENE visible
23 Dec 10.1 04:40:31 10° WSW 04:59:06 54° NW 05:15:59 10° NE visible
23 Dec 8.7 20:45:59 10° NW 20:53:39 56° NNE 21:07:22 10° ESE visible
23 Dec 9.3 22:56:58 10° W 23:07:48 84° S 23:26:17 10° E visible
